User: anonymous   Login
Location: Hohe Wand Kleine Kanzel
(47.8330°N, 16.0170°E)
Time: 14:39:20
(UTC+02:00)
Language:

Tiros 1 despin weight - Orbit

View from above orbital plane
View from above orbital plane
View from above satellite
View from above satellite

Ground track
Ground track

The orbit data is extracted from the following two-line orbital elements,

1 00115U 60002D   21213.78620295 -.00000008  00000-0  25964-4 0  9992
2 00115  48.1669 100.7946 0034907 258.3503 101.3491 14.83801827252740
Epoch (UTC): 01 August 2021 18:52:07
Eccentricity: 0.0034907
inclination: 48.1669°
perigee height: 593 km
apogee height: 642 km
right ascension of ascending node: 100.7946°
argument of perigee: 258.3503°
revolutions per day: 14.83801827
mean anomaly at epoch: 101.3491°
orbit number at epoch: 25274

The dashed part of the orbit path shows where the satellite is in the earth's shadow,  

DLR